When you browse on this site, cookies collect data to enhance your experience and personalize the content and advertising you see.
Visit our Privacy Policy to learn more. By continuing to use the site, you agree to this use of cookies and data.
  • în România
  • Lista ţărilor
  • Pe 7 zile
  • Temperatura apei
  • Hartă satelitară
  • Meteo pe hartă
  • Widget-uri
  • user-avatar
    Intrare

    Meteo pe oră la Barcelona

    Astăzi, 25 Iunie, Marţi

    Timp Temperatura Precipitaţii Vânt Presiune Umiditate
    00:00 +26°C° 0 mm 3 m/s 760 mmHg 93%
    01:00 +26°C° 0 mm 2 m/s 759 mmHg 94%
    02:00 +26°C° 0 mm 2 m/s 759 mmHg 94%
    03:00 +25°C° 0 mm 2 m/s 759 mmHg 95%
    04:00 +25°C° 0 mm 1 m/s 759 mmHg 95%
    05:00 +25°C° 0 mm 1 m/s 759 mmHg 95%
    06:00 +26°C° 0 mm 1 m/s 759 mmHg 92%
    07:00 +27°C° 0 mm 1 m/s 759 mmHg 90%
    08:00 +28°C° 0 mm 1 m/s 760 mmHg 86%
    09:00 +29°C° 0 mm 1 m/s 760 mmHg 78%
    10:00 +31°C° 0 mm 2 m/s 760 mmHg 70%
    11:00 +32°C° 0 mm 2 m/s 760 mmHg 62%
    12:00 +34°C° 0.1 mm 2 m/s 759 mmHg 62%
    13:00 +34°C° 0.1 mm 2 m/s 759 mmHg 62%
    14:00 +34°C° 0.1 mm 2 m/s 758 mmHg 62%
    15:00 +33°C° 0.1 mm 3 m/s 758 mmHg 65%
    16:00 +31°C° 0.1 mm 3 m/s 757 mmHg 68%
    17:00 +32°C° 0.1 mm 4 m/s 757 mmHg 71%
    18:00 +29°C° 0 mm 4 m/s 758 mmHg 77%
    19:00 +28°C° 0 mm 5 m/s 758 mmHg 82%
    20:00 +27°C° 0 mm 5 m/s 759 mmHg 88%
    21:00 +27°C° 0 mm 5 m/s 759 mmHg 90%
    22:00 +27°C° 0 mm 4 m/s 760 mmHg 92%
    23:00 +26°C° 0 mm 4 m/s 760 mmHg 93%

    Mâine, 26 Iunie, Miercuri

    Timp Temperatura Precipitaţii Vânt Presiune Umiditate
    00:00 +26°C° 0 mm 3 m/s 760 mmHg 94%
    01:00 +26°C° 0 mm 3 m/s 760 mmHg 95%
    02:00 +25°C° 0 mm 2 m/s 759 mmHg 95%
    03:00 +25°C° 0 mm 2 m/s 759 mmHg 95%
    04:00 +25°C° 0 mm 1 m/s 759 mmHg 95%
    05:00 +25°C° 0 mm 1 m/s 759 mmHg 95%
    06:00 +26°C° 0 mm 1 m/s 760 mmHg 90%
    07:00 +27°C° 0 mm 1 m/s 760 mmHg 85%
    08:00 +28°C° 0 mm 1 m/s 760 mmHg 80%
    09:00 +30°C° 0 mm 1 m/s 760 mmHg 72%
    10:00 +32°C° 0 mm 1 m/s 760 mmHg 64%
    11:00 +34°C° 0 mm 1 m/s 760 mmHg 55%
    12:00 +35°C° 0.1 mm 2 m/s 760 mmHg 57%
    13:00 +35°C° 0.1 mm 3 m/s 759 mmHg 58%
    14:00 +34°C° 0.1 mm 3 m/s 759 mmHg 59%
    15:00 +34°C° 0.1 mm 4 m/s 758 mmHg 62%
    16:00 +33°C° 0.1 mm 4 m/s 758 mmHg 65%
    17:00 +32°C° 0.1 mm 5 m/s 757 mmHg 68%
    18:00 +30°C° 0 mm 5 m/s 757 mmHg 74%
    19:00 +28°C° 0 mm 5 m/s 758 mmHg 80%
    20:00 +27°C° 0 mm 5 m/s 758 mmHg 86%
    21:00 +27°C° 0 mm 5 m/s 758 mmHg 87%
    22:00 +26°C° 0 mm 4 m/s 759 mmHg 89%
    23:00 +26°C° 0 mm 4 m/s 759 mmHg 90%

    Poimâine, 27 Iunie, Joi

    Timp Temperatura Precipitaţii Vânt Presiune Umiditate
    00:00 +26°C° 0 mm 3 m/s 759 mmHg 90%
    01:00 +25°C° 0 mm 2 m/s 759 mmHg 90%
    02:00 +25°C° 0 mm 2 m/s 759 mmHg 90%
    03:00 +25°C° 0 mm 1 m/s 759 mmHg 91%
    04:00 +24°C° 0 mm 1 m/s 759 mmHg 91%
    05:00 +24°C° 0 mm 1 m/s 758 mmHg 91%
    06:00 +25°C° 0 mm 1 m/s 759 mmHg 86%
    07:00 +27°C° 0 mm 1 m/s 759 mmHg 81%
    08:00 +28°C° 0 mm 2 m/s 759 mmHg 77%
    09:00 +30°C° 0 mm 2 m/s 759 mmHg 68%
    10:00 +32°C° 0 mm 2 m/s 759 mmHg 60%
    11:00 +35°C° 0 mm 2 m/s 760 mmHg 51%
    12:00 +35°C° 0 mm 2 m/s 759 mmHg 50%
    13:00 +36°C° 0 mm 2 m/s 758 mmHg 48%
    14:00 +36°C° 0 mm 3 m/s 758 mmHg 46%
    15:00 +35°C° 0 mm 3 m/s 757 mmHg 52%
    16:00 +33°C° 0 mm 4 m/s 757 mmHg 58%
    17:00 +32°C° 0 mm 4 m/s 756 mmHg 64%
    18:00 +30°C° 0 mm 4 m/s 757 mmHg 71%
    19:00 +28°C° 0 mm 4 m/s 757 mmHg 77%
    20:00 +27°C° 0 mm 5 m/s 758 mmHg 83%
    21:00 +27°C° 0 mm 4 m/s 758 mmHg 84%
    22:00 +27°C° 0 mm 4 m/s 759 mmHg 85%
    23:00 +26°C° 0 mm 3 m/s 759 mmHg 86%

    28 Iunie, Vineri

    Timp Temperatura Precipitaţii Vânt Presiune Umiditate
    00:00 +26°C° 0 mm 2 m/s 759 mmHg 86%
    01:00 +26°C° 0 mm 2 m/s 759 mmHg 86%
    02:00 +25°C° 0 mm 1 m/s 759 mmHg 85%
    03:00 +25°C° 0.8 mm 1 m/s 759 mmHg 88%
    04:00 +25°C° 0.8 mm 1 m/s 758 mmHg 90%
    05:00 +25°C° 0.8 mm 2 m/s 758 mmHg 92%
    06:00 +26°C° 1.3 mm 1 m/s 759 mmHg 91%
    07:00 +26°C° 1.3 mm 1 m/s 760 mmHg 89%
    08:00 +27°C° 1.3 mm 1 m/s 760 mmHg 88%
    09:00 +27°C° 0.4 mm 1 m/s 760 mmHg 87%
    10:00 +28°C° 0.4 mm 1 m/s 760 mmHg 86%
    11:00 +28°C° 0.4 mm 1 m/s 760 mmHg 84%
    12:00 +29°C° 0.1 mm 1 m/s 760 mmHg 79%
    13:00 +30°C° 0.1 mm 2 m/s 759 mmHg 74%
    14:00 +31°C° 0.1 mm 2 m/s 759 mmHg 69%
    15:00 +30°C° 0.1 mm 3 m/s 758 mmHg 72%
    16:00 +30°C° 0.1 mm 3 m/s 758 mmHg 75%
    17:00 +29°C° 0.1 mm 3 m/s 758 mmHg 78%
    18:00 +28°C° 0 mm 3 m/s 758 mmHg 82%
    19:00 +28°C° 0 mm 3 m/s 758 mmHg 87%
    20:00 +27°C° 0 mm 3 m/s 759 mmHg 91%
    21:00 +27°C° 0 mm 2 m/s 759 mmHg 92%
    22:00 +26°C° 0 mm 1 m/s 760 mmHg 92%
    23:00 +26°C° 0 mm 1 m/s 760 mmHg 93%

    29 Iunie, Sâmbătă

    Timp Temperatura Precipitaţii Vânt Presiune Umiditate
    00:00 +26°C° 0 mm 1 m/s 760 mmHg 92%
    01:00 +26°C° 0 mm 1 m/s 759 mmHg 91%
    02:00 +26°C° 0 mm 1 m/s 758 mmHg 91%
    03:00 +26°C° 0 mm 1 m/s 758 mmHg 91%
    04:00 +26°C° 0 mm 1 m/s 758 mmHg 91%
    05:00 +26°C° 0 mm 1 m/s 758 mmHg 91%
    06:00 +27°C° 0 mm 1 m/s 759 mmHg 87%
    07:00 +26°C° 0 mm 0 m/s 759 mmHg 84%
    08:00 +27°C° 0 mm 0 m/s 759 mmHg 81%
    09:00 +30°C° 0 mm 1 m/s 760 mmHg 75%
    10:00 +32°C° 0 mm 1 m/s 760 mmHg 69%
    11:00 +34°C° 0 mm 1 m/s 760 mmHg 63%
    12:00 +34°C° 0.3 mm 2 m/s 759 mmHg 64%
    13:00 +34°C° 0.3 mm 2 m/s 759 mmHg 66%
    14:00 +34°C° 0.3 mm 3 m/s 758 mmHg 68%
    15:00 +33°C° 0.1 mm 4 m/s 757 mmHg 69%
    16:00 +33°C° 0.1 mm 4 m/s 757 mmHg 70%
    17:00 +33°C° 0.1 mm 5 m/s 757 mmHg 72%
    18:00 +32°C° 0 mm 5 m/s 757 mmHg 75%
    19:00 +29°C° 0 mm 5 m/s 758 mmHg 79%
    20:00 +28°C° 0 mm 5 m/s 758 mmHg 83%
    21:00 +28°C° 0 mm 4 m/s 759 mmHg 84%
    22:00 +27°C° 0 mm 4 m/s 759 mmHg 85%
    23:00 +27°C° 0 mm 3 m/s 760 mmHg 86%

    30 Iunie, Duminică

    Timp Temperatura Precipitaţii Vânt Presiune Umiditate
    00:00 +26°C° 0 mm 3 m/s 759 mmHg 86%
    01:00 +26°C° 0 mm 2 m/s 759 mmHg 86%
    02:00 +26°C° 0 mm 1 m/s 759 mmHg 86%
    03:00 +26°C° 0 mm 1 m/s 759 mmHg 87%
    04:00 +25°C° 0 mm 1 m/s 758 mmHg 87%
    05:00 +25°C° 0 mm 1 m/s 758 mmHg 88%
    06:00 +26°C° 0 mm 1 m/s 759 mmHg 84%
    07:00 +28°C° 0 mm 1 m/s 759 mmHg 80%
    08:00 +29°C° 0 mm 1 m/s 759 mmHg 76%
    09:00 +30°C° 0 mm 1 m/s 759 mmHg 71%
    10:00 +32°C° 0 mm 1 m/s 759 mmHg 66%
    11:00 +33°C° 0 mm 1 m/s 759 mmHg 61%
    12:00 +34°C° 0 mm 2 m/s 759 mmHg 62%
    13:00 +33°C° 0 mm 3 m/s 758 mmHg 63%
    14:00 +33°C° 0 mm 3 m/s 758 mmHg 64%
    15:00 +33°C° 0.1 mm 4 m/s 757 mmHg 66%
    16:00 +33°C° 0.1 mm 5 m/s 757 mmHg 67%
    17:00 +33°C° 0.1 mm 5 m/s 757 mmHg 69%
    18:00 +30°C° 0 mm 5 m/s 757 mmHg 74%
    19:00 +29°C° 0 mm 5 m/s 758 mmHg 79%
    20:00 +28°C° 0 mm 4 m/s 758 mmHg 84%
    21:00 +27°C° 0 mm 4 m/s 759 mmHg 85%
    22:00 +27°C° 0 mm 3 m/s 759 mmHg 86%
    23:00 +26°C° 0 mm 2 m/s 760 mmHg 87%
    Arată mai mult